Regional Weather Roundup
Issued by NWS

Home | Current Version | Previous Version | Graphics & Text | Print | Product List | Glossary On
Versions: 1 2 3 4 5 6 7 8 9 10 11 12 13 14 15 16 17 18 19 20 21 22 23 24 25 26 27 28 29 30 31 32 33 34 35 36 37 38 39 40 41 42 43 44 45 46 47 48 49 50
000
ASUS44 KMEG 041200
RWRTN
TENNESSEE HOURLY STATE WEATHER ROUNDUP
NATIONAL WEATHER SERVICE MEMPHIS TN
600 AM CST WED MAR 04 2015

TNZ002-004-019-021-049-052-054-088>092-041300-
WEST TENNESSEE

CITY           SKY/WX    TMP DP  RH WIND       PRES   REMARKS
MEMPHIS INTL   LGT RAIN  56  54  93 CALM      29.87S VSB 1
NWS MEMPHIS      N/A     55 N/A N/A MISG        N/A
JACKSON        RAIN      52  50  93 N6        29.88R FOG
DYERSBURG      CLOUDY    46  36  66 NE3       29.91R
UNION CITY     CLOUDY    43  43 100 N10       29.90R
PARIS          MOCLDY    46  45  93 E3        29.89S
LEXINGTON      CLOUDY    52  52 100 NE7       29.86S
SAVANNAH       CLOUDY    66  66 100 S14       29.88S
$$

TNZ008-025-027-028-033-062-065-066-041300-
NORTH MIDDLE TENNESSEE

CITY           SKY/WX    TMP DP  RH WIND       PRES   REMARKS
NASHVILLE      RAIN      51  50  96 NE7       29.90S FOG
CLARKSVILLE    LGT RAIN  45  45 100 E5        29.90F FOG
SMYRNA         RAIN      52  52 100 N7        29.91R FOG
COOKEVILLE     CLOUDY    63  61  94 SW10      29.89R
CROSSVILLE     CLOUDY    61  58  90 SW10G17   29.92S
$$

TNZ061-075-076-078-094-096-097-041300-
SOUTH MIDDLE TENNESSEE

CITY           SKY/WX    TMP DP  RH WIND       PRES   REMARKS
FAYETTEVILLE   CLOUDY    61  61 100 SW10        N/A
TULLAHOMA      CLOUDY    63  61  94 SW10      29.92S
WINCHESTER     CLOUDY    64  61  88 SW9       29.93S
COLUMBIA         N/A    N/A N/A N/A SW14      29.85F
SHELBYVILLE    CLOUDY    64  64 100 S12       29.90S
$$

TNZ017-018-042-046-047-041300-
NORTHEAST TENNESSEE

CITY           SKY/WX    TMP DP  RH WIND       PRES   REMARKS
TRI CITIES     LGT RAIN  46  46 100 CALM      29.93S VSB 1/2
ELIZABETHTON   LGT RAIN  46  46 100 CALM      29.93R FOG
$$

TNZ012-013-036-069-073-074-041300-
CENTRAL EAST TENNESSEE

CITY           SKY/WX    TMP DP  RH WIND       PRES   REMARKS
KNOXVILLE      CLOUDY    62  59  90 SW20      29.92R
OAK RIDGE      LGT RAIN  55  54  96 W6        29.94R
GATLINBURG     CLOUDY    57  57 100 SW14      29.90S
$$

TNZ083-085-099-041300-
SOUTHEAST TENNESSEE

CITY           SKY/WX    TMP DP  RH WIND       PRES   REMARKS
CHATTANOOGA    CLOUDY    60  58  92 S8        29.97R FOG
$$

SKY/WX REPORTED AS FAIR MEANS FEW OR NO CLOUDS BELOW
12 THOUSAND FEET.




USA.gov is the U.S. government's official web portal to all federal, state and local government web resources and services.